Wind_Speed
9 8 7 8 8 8 8 8 8 7 7 7 7 7 7 8 8 8 9 9 9 9 10 12 14 14 15 15 15 15 15 15 15 16 17 18 19 19 20 20 20 20 20 21 23 23 24 24 23 24 19 13
8 7 6 6 6 7 7 7 8 7 7 7 7 7 7 8 8 8 8 8 9 9 10 10 11 12 13 13 14 14 14 14 15 16 17 18 18 19 20 20 21 20 21 21 22 23 24 23 23 23 17 14
8 6 6 5 5 6 6 7 7 7 7 7 7 7 7 8 8 8 8 9 9 10 10 10 11 11 12 13 13 14 14 14 15 16 16 17 18 18 19 20 20 20 21 21 22 23 23 23 20 18 16 15
7 6 6 5 5 5 5 6 7 7 7 7 7 7 7 8 8 9 9 9 9 10 10 10 11 11 11 12 13 14 14 15 15 16 16 17 18 18 19 19 20 21 21 22 22 23 24 23 17 17 19 15
8 7 7 6 6 5 5 5 6 6 6 6 6 7 7 8 8 8 9 9 10 10 11 11 11 12 12 13 14 15 15 15 16 17 17 18 19 19 20 20 21 21 22 23 23 24 24 22 17 20 22 15
10 9 8 7 6 5 5 5 5 5 5 5 5 6 7 7 6 7 9 9 10 10 11 11 12 12 13 14 15 17 17 17 18 19 19 20 21 21 22 22 22 22 23 23 23 23 22 20 19 22 21 15
10 10 9 7 6 6 5 4 4 3 3 4 4 5 6 5 6 7 8 9 10 11 12 13 15 15 16 17 18 19 19 20 21 21 21 22 22 21 22 21 20 21 22 22 23 22 20 20 20 21 19 16
10 9 9 7 7 6 5 4 3 2 2 2 3 4 4 5 6 6 6 9 11 10 10 12 15 16 17 18 20 20 20 21 22 22 22 22 22 21 21 21 19 20 20 21 22 20 20 21 21 21 17 15
9 9 8 7 7 7 5 4 3 1 1 2 3 3 4 5 7 6 6 9 10 9 9 10 12 13 15 16 18 19 18 19 20 20 19 21 21 19 19 20 19 19 19 20 20 19 20 21 22 21 17 16
10 9 8 8 7 6 5 5 3 2 1 2 3 3 4 4 5 5 5 8 10 10 9 10 11 11 13 14 15 17 15 17 18 16 16 17 18 18 18 18 18 18 17 18 17 17 20 22 22 21 18 18
9 9 8 9 8 7 6 5 4 3 2 3 3 3 3 3 3 4 4 7 10 10 9 11 12 10 12 12 13 15 14 16 16 13 14 15 15 16 16 15 15 16 16 15 14 14 18 22 22 21 20 20
9 9 9 9 8 7 6 5 5 4 3 3 3 3 3 2 2 3 3 6 7 7 8 11 12 10 10 10 12 13 12 14 15 12 12 14 14 14 14 13 13 15 15 13 12 12 15 21 21 19 20 21
9 10 10 9 8 8 7 5 5 5 3 2 2 4 4 2 2 1 2 4 5 5 7 9 10 8 8 9 10 11 11 12 12 11 11 13 14 13 12 11 11 14 13 12 12 12 15 21 19 16 18 19
10 10 10 9 9 9 7 6 7 4 3 3 3 4 5 4 3 2 2 3 4 4 5 6 6 6 6 7 9 10 10 11 11 10 10 12 14 13 12 10 11 12 12 12 11 11 16 20 16 15 16 16
10 10 10 10 10 8 8 8 7 5 5 5 5 5 6 5 4 3 4 4 4 3 3 4 4 5 5 6 7 9 10 11 11 9 10 12 14 13 11 10 10 11 11 11 10 11 15 17 15 15 15 15
11 10 11 11 10 9 10 9 7 6 6 6 7 7 5 4 4 3 3 5 5 3 2 3 4 4 5 5 7 8 10 12 10 8 9 11 12 11 10 9 9 10 11 10 11 11 13 14 14 14 15 15
12 11 12 12 10 11 11 9 8 7 7 7 7 7 5 4 3 2 2 3 4 2 0 2 3 3 3 5 7 8 9 11 8 7 9 10 10 9 9 9 9 10 10 10 11 12 13 14 13 13 14 14
12 12 13 12 10 12 12 8 8 8 8 8 7 7 6 4 3 2 2 2 2 1 1 0 2 2 2 4 7 7 8 8 6 6 9 9 9 9 9 9 10 10 10 10 11 12 13 14 13 13 13 13
12 13 13 12 11 12 12 10 9 9 9 9 7 7 7 5 4 3 2 1 0 1 2 2 1 1 1 5 6 4 6 7 4 5 7 7 8 9 8 9 9 10 10 11 12 13 14 14 13 13 13 12
13 12 13 13 12 13 13 11 10 10 10 10 9 8 8 7 5 3 2 1 1 2 3 3 2 1 3 6 4 3 5 5 4 5 7 7 7 8 8 9 9 9 10 10 13 15 15 14 13 13 12 12
14 13 13 12 13 14 15 13 11 11 12 11 10 10 9 8 6 4 3 2 2 3 3 3 3 2 4 5 3 3 3 3 3 5 6 7 6 7 8 9 9 9 10 11 14 15 14 14 13 12 12 11
16 14 13 12 13 14 15 14 12 13 13 12 12 11 11 10 7 6 4 3 3 3 4 3 3 2 3 4 2 2 2 1 3 4 6 7 7 7 8 8 8 9 10 13 15 16 14 13 12 13 12 11
16 15 14 13 13 14 15 14 14 14 14 14 13 13 13 11 9 8 6 4 4 4 4 3 2 1 1 2 1 1 0 0 1 3 5 6 7 7 7 7 8 8 10 14 16 16 14 13 14 14 11 9
17 16 16 15 14 15 15 15 15 16 15 15 14 15 15 13 11 10 8 6 6 6 6 5 4 2 0 1 2 2 2 1 2 4 5 5 6 7 6 7 6 7 11 14 15 13 12 14 16 14 10 9
20 19 18 17 17 17 16 16 16 17 17 16 15 16 17 14 13 13 11 9 8 7 8 8 6 4 2 2 2 3 3 3 4 4 4 5 5 6 6 7 6 6 10 13 12 12 13 15 14 10 8 7
21 21 20 19 18 17 16 17 17 17 18 17 17 18 19 17 16 16 14 12 11 10 9 9 8 7 5 4 5 4 4 3 3 3 3 4 4 4 5 7 6 5 8 9 10 12 13 12 9 8 8 9
22 21 21 19 17 17 16 17 18 17 17 17 18 20 21 20 19 19 17 15 14 13 12 11 10 10 8 7 7 6 5 4 2 2 2 2 3 4 5 6 5 3 4 7 10 11 9 7 7 8 8 6
24 20 20 19 17 16 16 16 16 16 16 17 19 22 23 23 23 22 20 18 17 15 14 13 12 11 11 8 7 7 7 7 6 5 4 3 2 3 4 5 5 3 3 4 7 7 6 7 6 5 5 5
26 21 19 19 17 16 16 15 15 17 17 18 20 22 24 25 25 24 22 20 18 17 15 14 13 13 12 11 8 7 7 7 7 6 5 4 3 3 3 5 6 5 4 4 3 4 5 6 4 4 7 11
27 24 22 22 20 20 19 18 19 21 21 21 22 24 24 25 26 25 24 22 20 19 17 16 15 14 14 12 10 9 8 8 7 7 6 4 3 3 4 4 6 6 5 5 5 6 6 6 6 7 9 8
29 27 25 25 24 24 23 23 23 22 21 21 22 24 24 24 26 27 26 24 23 21 20 18 17 16 15 14 12 11 10 9 8 8 8 6 5 4 4 5 6 6 6 6 6 7 7 9 10 10 9 7
Wind_Direction
107 104 105 108 108 102 92 88 82 77 76 74 70 66 59 55 54 54 52 49 45 42 41 41 40 37 34 32 31 29 27 26 20 14 12 9 8 9 9 8 8 9 7 4 5 7 8 10 14 23 29 18
118 115 111 112 108 100 93 86 80 75 72 69 66 61 55 51 47 45 43 39 37 33 30 28 30 29 24 20 19 18 17 16 12 8 7 7 6 6 6 6 6 5 5 4 3 5 6 8 15 20 21 13
126 122 119 120 111 100 93 88 82 77 70 67 63 57 53 47 43 40 37 34 32 30 27 25 24 22 17 14 12 11 10 10 8 5 5 4 4 3 4 3 2 2 2 2 1 2 3 8 17 14 10 9
132 132 135 131 116 105 95 89 81 75 67 63 57 52 47 42 40 33 30 28 26 23 21 20 19 16 12 9 7 6 5 5 4 2 1 360 0 359 359 358 358 359 359 359 358 359 360 8 15 3 4 8
146 143 141 134 124 117 103 92 79 72 63 58 51 44 41 41 41 30 22 19 17 14 13 13 10 8 6 4 2 1 360 360 358 357 356 356 355 353 353 354 355 355 354 355 355 356 359 5 5 356 2 4
151 146 145 141 136 128 113 101 85 77 65 59 49 44 47 44 39 23 11 10 10 3 1 4 2 359 357 356 355 355 352 352 353 351 350 350 351 350 352 353 354 352 352 353 353 356 359 359 356 354 359 358
147 145 146 143 138 128 121 113 98 88 64 55 41 41 52 38 21 19 4 358 360 359 360 356 352 350 348 348 347 349 348 347 348 349 348 348 351 352 352 356 355 352 352 351 351 355 356 354 353 352 355 351
144 142 141 138 134 126 126 125 113 97 49 28 15 19 31 8 3 20 6 355 2 5 4 354 350 350 348 347 343 346 350 348 347 350 349 348 353 355 353 356 356 354 354 353 353 354 352 351 351 352 352 346
150 147 144 142 139 137 139 135 125 108 3 340 348 349 356 353 357 13 3 353 359 1 355 351 353 350 347 348 346 349 352 350 351 353 352 351 354 356 355 356 357 357 356 354 355 354 352 352 351 352 350 343
162 154 147 147 148 146 149 147 142 144 265 299 316 328 348 5 4 10 360 347 347 350 350 347 351 348 347 350 350 353 352 351 356 357 354 355 357 357 356 356 357 358 356 354 355 352 352 353 353 352 348 344
162 156 154 162 163 152 157 159 153 162 209 264 288 313 342 10 6 4 354 345 343 346 348 343 348 351 349 351 351 353 354 352 358 1 356 357 358 357 356 356 355 355 355 354 351 348 349 352 354 352 348 346
162 164 172 180 173 169 180 167 163 192 218 250 274 284 312 343 360 360 343 344 346 347 346 341 347 354 350 353 352 354 358 355 359 2 356 358 359 356 355 354 350 351 354 351 347 344 345 351 353 350 346 345
170 172 182 182 176 196 201 174 189 219 218 221 262 280 301 327 341 353 339 341 347 344 342 342 348 355 355 355 354 357 1 358 1 2 356 358 360 356 354 353 347 348 351 346 344 342 342 349 351 344 342 342
177 181 186 184 191 208 196 191 215 217 189 192 218 270 295 307 313 317 320 333 342 342 342 349 355 358 360 358 355 357 1 1 2 1 357 356 359 359 354 349 344 345 346 341 341 338 340 346 344 337 339 338
185 185 188 192 200 202 195 211 220 199 198 209 228 259 287 299 310 315 314 324 332 341 342 351 356 358 3 3 358 356 358 3 6 3 357 354 358 357 351 345 342 342 341 339 338 333 336 340 337 334 335 333
187 183 191 198 196 196 209 217 203 194 206 218 245 264 279 285 300 317 311 316 330 348 336 342 356 360 2 1 358 353 356 6 9 3 355 354 356 353 346 341 339 340 338 335 334 332 332 333 330 329 329 328
190 190 199 202 191 204 219 211 196 196 200 212 244 262 264 272 293 300 266 301 338 30 35 342 5 17 11 353 355 356 359 8 8 356 354 355 354 349 344 341 338 338 336 333 332 332 330 328 326 323 323 322
195 198 204 203 194 214 221 203 200 200 205 220 234 251 259 268 274 262 240 288 349 76 147 114 20 38 32 346 358 4 359 7 6 352 355 354 351 349 345 339 336 336 332 330 329 329 328 325 322 319 318 316
199 201 204 205 201 218 220 203 205 204 212 223 221 233 252 258 255 257 252 262 359 117 147 152 125 80 348 346 7 6 352 6 7 349 354 353 347 347 344 336 333 332 328 325 325 326 325 321 317 316 315 312
202 202 204 208 208 219 221 210 206 206 213 217 211 217 235 245 241 237 240 231 163 156 156 159 158 190 320 353 15 359 352 8 360 345 352 353 345 340 337 334 330 326 325 321 320 321 320 317 314 311 311 309
204 204 204 208 211 219 224 216 206 209 214 211 208 210 221 234 228 219 223 201 170 163 169 169 169 227 324 4 22 3 2 2 347 346 349 347 342 336 331 329 327 324 323 319 317 317 313 311 308 306 307 306
206 206 206 207 211 217 221 215 208 212 212 210 210 205 214 226 220 215 215 198 181 172 182 183 180 236 340 18 30 16 9 330 334 343 342 340 335 332 327 323 323 323 321 318 316 312 306 304 301 301 303 300
206 207 207 208 209 213 216 212 209 210 209 210 208 203 215 224 216 215 215 203 189 180 190 191 187 222 357 40 86 134 51 317 308 325 331 331 326 325 320 315 314 315 319 318 312 305 302 301 298 295 295 295
204 205 205 206 207 209 211 210 209 212 211 209 205 208 222 223 214 218 218 209 199 188 187 187 197 217 294 86 133 171 172 200 271 308 325 326 321 318 316 315 311 314 322 316 307 303 303 302 297 287 279 283
204 203 203 205 208 210 210 209 209 212 212 209 205 215 227 222 215 219 219 213 206 200 193 190 200 212 205 161 160 174 187 235 295 319 333 333 320 311 310 315 311 317 326 320 315 317 313 306 298 281 260 261
207 207 207 208 211 213 213 212 210 211 212 207 207 220 227 221 217 220 220 216 210 208 203 194 196 200 193 181 180 189 211 258 313 323 328 334 324 311 306 305 299 312 331 329 323 320 313 308 307 296 267 246
210 211 212 214 215 216 218 218 214 213 212 206 210 222 226 222 221 222 220 217 214 212 207 197 193 193 192 188 185 190 202 212 214 213 241 295 308 307 306 304 293 291 326 326 320 313 304 309 315 307 282 234
213 213 214 216 218 220 221 221 216 213 211 205 211 221 225 224 223 224 222 219 218 215 209 201 193 190 190 193 190 184 189 195 194 194 206 229 252 285 300 309 303 291 288 304 323 319 304 305 297 291 323 334
213 211 212 213 213 214 215 215 209 207 207 202 207 216 222 224 224 223 222 220 220 217 212 204 198 192 190 194 194 187 189 192 196 198 207 226 230 241 269 292 298 294 274 241 269 300 296 301 290 288 331 329
211 209 209 206 204 206 208 211 210 209 208 205 209 216 220 222 223 223 221 220 220 218 214 209 204 199 194 195 195 189 189 189 195 201 202 213 222 225 240 265 282 288 279 247 235 244 254 268 281 296 312 313
213 210 210 209 209 212 213 217 219 217 214 211 214 217 217 217 220 222 220 220 221 218 216 214 211 208 203 199 198 194 192 192 194 196 201 217 226 224 230 242 260 273 278 272 254 237 234 250 263 275 282 284
Height
881 882 883 883 884 884 884 885 885 885 885 885 885 885 885 885 885 885 885 884 884 884 884 884 884 883 883 882 882 882 881 881 880 879 879 878 877 877 876 876 875 874 873 873 872 871 870 869 868 868 867 868
881 882 883 884 884 884 885 885 885 885 886 886 886 886 886 886 885 885 885 885 885 884 884 884 884 883 883 883 882 882 881 881 880 880 879 878 878 877 876 876 875 874 874 873 872 871 870 869 868 868 868 869
881 882 883 884 884 884 884 885 885 886 886 886 886 886 886 886 886 886 885 885 885 885 884 884 884 884 883 883 882 882 881 881 881 880 879 879 878 877 877 876 875 874 874 873 872 871 871 869 869 869 869 869
881 882 883 884 884 884 885 885 885 886 886 886 886 886 886 886 886 886 885 885 885 885 885 884 884 884 883 883 883 882 881 881 880 880 879 878 878 877 877 876 875 874 874 873 872 871 870 870 870 870 869 869
882 883 883 884 884 885 885 885 886 886 886 886 887 887 887 886 886 886 886 885 885 885 884 884 884 883 883 883 882 882 881 881 880 880 879 878 878 877 876 876 875 874 873 872 872 871 870 870 870 869 869 869
882 883 883 884 884 885 885 885 886 886 886 887 887 887 887 887 887 886 886 885 885 885 884 884 884 883 883 882 882 881 881 880 880 879 878 878 877 876 875 875 874 873 873 872 871 871 870 870 870 869 869 869
882 883 883 884 884 884 885 885 886 886 886 886 887 887 887 887 886 886 886 885 885 884 884 883 883 883 882 882 881 881 880 879 879 878 878 877 876 876 875 874 874 873 872 872 871 870 870 870 869 869 868 868
882 883 883 884 884 885 885 885 885 886 886 886 886 886 887 887 886 886 886 885 885 884 884 884 883 882 882 881 881 880 880 879 878 878 877 876 876 875 874 874 874 873 872 872 871 870 870 869 869 868 868 868
882 882 883 884 884 884 884 885 885 885 885 885 886 886 886 886 886 886 886 885 885 885 885 884 884 883 882 882 881 880 880 879 878 878 877 876 875 875 874 874 873 873 872 871 871 870 869 869 868 868 868 867
881 882 883 883 883 884 884 884 885 885 885 885 885 885 885 885 886 886 885 885 884 884 884 884 884 883 882 882 881 880 880 879 878 878 877 877 876 875 875 874 873 873 872 871 870 870 869 868 868 867 867 866
880 881 882 882 882 883 883 884 884 884 884 884 884 885 885 885 885 885 885 885 884 884 884 883 883 882 882 881 881 880 880 879 878 878 878 877 876 876 875 874 874 873 872 872 871 870 869 868 867 867 866 865
879 880 880 880 881 882 882 883 883 883 883 883 884 884 884 884 885 885 885 884 884 883 883 882 882 882 881 881 880 880 879 879 878 878 878 877 877 876 875 875 874 873 873 872 871 870 869 868 867 866 865 865
878 878 879 879 880 880 881 882 882 882 882 883 882 882 883 883 884 884 884 884 883 883 882 882 881 881 881 880 880 879 879 878 878 878 878 877 876 876 876 875 875 873 873 872 871 870 869 868 867 866 865 864
877 877 878 878 879 879 880 880 880 881 881 882 881 881 881 882 882 883 883 883 882 882 882 881 881 881 880 880 879 879 879 878 878 878 877 877 876 876 876 875 875 874 873 872 872 871 869 868 867 866 865 864
875 876 876 877 877 878 878 879 879 880 880 880 880 880 880 880 881 881 881 881 881 881 881 881 880 880 880 880 879 878 878 877 877 877 877 876 876 876 875 875 875 874 873 872 872 871 869 868 867 866 865 864
874 875 875 875 876 876 877 877 878 879 879 879 878 878 879 879 879 879 880 880 880 880 880 880 879 879 879 879 879 878 877 877 877 877 877 876 876 875 875 875 874 874 873 872 872 871 869 868 867 866 865 863
872 873 873 874 875 875 875 876 877 877 877 877 877 877 877 877 878 878 878 878 878 878 879 879 878 879 879 878 878 877 877 877 877 877 876 876 876 875 875 875 874 873 873 872 871 870 869 868 867 866 864 863
871 871 871 872 873 873 873 874 875 875 875 875 875 875 875 876 876 876 876 876 876 877 877 878 878 878 878 877 877 877 877 877 877 877 876 876 875 875 875 874 874 873 872 871 871 870 868 867 866 865 864 863
869 869 870 870 871 871 872 873 873 873 873 874 874 874 874 874 874 874 875 875 875 875 876 876 877 877 877 876 876 877 877 876 877 877 876 876 875 874 874 874 873 872 872 871 870 869 868 866 865 864 863 862
867 868 868 869 869 869 870 871 871 872 872 872 872 872 872 872 872 873 873 873 873 874 874 875 875 875 875 875 875 876 876 876 876 876 875 875 875 874 874 873 873 872 871 870 869 868 866 865 864 863 862 861
865 866 866 867 867 867 868 869 869 870 870 870 871 870 870 870 871 871 871 871 871 872 872 873 873 873 873 873 873 874 874 875 875 875 875 874 874 873 873 872 872 871 870 869 868 866 865 864 863 862 861 860
863 864 865 865 865 865 866 867 867 867 868 868 868 869 868 868 869 869 869 869 870 870 870 871 871 871 871 871 872 872 873 874 874 874 874 874 873 873 872 871 871 870 869 868 866 865 863 862 862 861 860 859
861 861 862 863 863 863 864 865 865 865 865 866 866 866 866 866 867 867 867 868 868 868 868 869 869 869 869 870 870 871 872 873 873 873 873 873 872 872 871 871 870 869 868 867 865 863 862 861 860 859 858 858
858 858 859 860 860 861 861 862 862 863 863 863 864 863 863 864 864 865 865 865 866 866 867 867 867 867 867 868 869 870 870 871 871 871 871 871 871 871 871 870 870 869 868 866 864 863 862 861 859 857 857 856
853 855 856 857 857 858 859 859 860 860 860 861 861 861 861 861 862 862 863 863 864 864 865 865 865 865 865 866 867 868 869 869 869 869 870 870 870 870 870 870 869 868 867 865 863 862 861 859 857 856 855 855
850 851 852 853 854 855 856 857 857 857 857 858 858 858 858 859 859 860 860 861 861 862 862 863 863 863 863 864 865 866 866 867 867 867 868 868 869 870 869 869 868 867 867 866 864 863 860 857 855 854 854 853
846 847 849 850 851 853 854 854 854 854 855 855 855 855 855 856 856 857 858 858 859 859 860 860 861 861 861 862 863 863 864 864 865 866 866 867 868 868 868 868 867 867 867 867 866 863 860 857 856 854 851 851
843 845 847 848 849 850 851 851 851 852 852 851 851 852 852 853 853 854 855 855 856 856 857 858 858 859 859 859 860 861 862 863 863 864 865 865 866 866 867 867 867 866 866 866 866 864 862 859 857 854 850 851
840 842 844 845 846 847 848 848 848 848 848 847 847 848 848 849 849 850 851 852 853 853 854 855 855 856 856 857 857 858 860 861 861 862 863 863 863 864 865 865 865 865 865 865 865 866 864 861 858 855 853 854
836 838 839 840 841 841 842 842 842 841 842 842 843 843 844 845 846 847 848 848 849 850 851 851 852 853 853 854 854 855 857 858 859 859 860 861 861 862 863 863 863 864 864 863 863 864 864 863 861 859 858 857
830 832 834 835 835 835 836 836 836 836 838 839 839 839 841 841 842 843 844 845 846 847 847 848 849 850 850 851 851 852 853 855 856 857 857 858 859 860 860 861 861 862 862 862 862 862 862 863 862 861 860 859